DG2GBZ-3 Weather Reports


Display with metric or nautical units.
time (UTC)temp
F
wind
direction
speed
MPH
gust
MPH
rain 1hr
in
rain 24hr
in
rain mn
in
humidity
%
barometer
mb
20260506174629 50 0.0 0.0 0.00 0.00 0.00 1010.9
20260506173629 50 0.0 0.0 0.00 0.00 0.00 1010.9
20260506172628 51 0.0 0.0 0.00 0.00 0.00 1010.6
20260506171628 51 0.0 0.0 0.00 0.00 0.00 1010.5
20260506170627 51 0.0 0.0 0.00 0.00 0.00 1010.4
20260506165627 51 0.0 0.0 0.00 0.00 0.00 1010.4
20260506164626 51 0.0 0.0 0.00 0.00 0.00 1010.4
20260506163626 51 0.0 0.0 0.00 0.00 0.00 1010.5
20260506162625 51 0.0 0.0 0.00 0.00 0.00 1010.5
20260506161625 52 0.0 0.0 0.00 0.00 0.00 1010.6
20260506160624 52 0.0 0.0 0.00 0.00 0.00 1010.6
20260506155624 53 0.0 0.0 0.00 0.00 0.00 1010.5
20260506154623 52 0.0 0.0 0.00 0.00 0.00 1010.5
20260506153623 52 0.0 0.0 0.00 0.00 0.00 1010.4
20260506152623 53 0.0 0.0 0.00 0.00 0.00 1010.3
20260506151622 53 0.0 0.0 0.00 0.00 0.00 1010.2
20260506150622 54 0.0 0.0 0.00 0.00 0.00 1010.1
20260506145621 54 0.0 0.0 0.00 0.00 0.00 1010.0
20260506144621 55 0.0 0.0 0.00 0.00 0.00 1009.9
20260506143620 55 0.0 0.0 0.00 0.00 0.00 1009.8
20260506142620 57 0.0 0.0 0.00 0.00 0.00 1009.8
20260506141619 59 0.0 0.0 0.00 0.00 0.00 1009.6
20260506140619 58 0.0 0.0 0.00 0.00 0.00 1009.5
20260506135618 59 0.0 0.0 0.00 0.00 0.00 1009.4
20260506134618 61 0.0 0.0 0.00 0.00 0.00 1009.3
20260506133617 61 0.0 0.0 0.00 0.00 0.00 1009.3
20260506132617 61 0.0 0.0 0.00 0.00 0.00 1009.2
20260506131616 62 0.0 0.0 0.00 0.00 0.00 1009.2
20260506130616 62 0.0 0.0 0.00 0.00 0.00 1009.1
20260506125615 62 0.0 0.0 0.00 0.00 0.00 1009.0
20260506124615 62 0.0 0.0 0.00 0.00 0.00 1009.0
20260506123614 62 0.0 0.0 0.00 0.00 0.00 1009.0
20260506122614 63 0.0 0.0 0.00 0.00 0.00 1008.8
20260506121613 64 0.0 0.0 0.00 0.00 0.00 1008.8
20260506120613 65 0.0 0.0 0.00 0.00 0.00 1008.7
20260506115612 65 0.0 0.0 0.00 0.00 0.00 1008.4
20260506114612 64 0.0 0.0 0.00 0.00 0.00 1008.3
20260506113611 65 0.0 0.0 0.00 0.00 0.00 1008.2
20260506112611 66 0.0 0.0 0.00 0.00 0.00 1008.2
20260506111610 65 0.0 0.0 0.00 0.00 0.00 1008.4
20260506110610 65 0.0 0.0 0.00 0.00 0.00 1008.4
20260506105609 68 0.0 0.0 0.00 0.00 0.00 1008.2
20260506104609 69 0.0 0.0 0.00 0.00 0.00 1008.3
20260506103608 69 0.0 0.0 0.00 0.00 0.00 1008.4
20260506102607 69 0.0 0.0 0.00 0.00 0.00 1008.5
20260506101607 70 0.0 0.0 0.00 0.00 0.00 1008.4
20260506100606 70 0.0 0.0 0.00 0.00 0.00 1008.4
20260506095606 71 0.0 0.0 0.00 0.00 0.00 1008.5
20260506094605 71 0.0 0.0 0.00 0.00 0.00 1008.6
20260506093605 73 0.0 0.0 0.00 0.00 0.00 1008.6
20260506092604 70 0.0 0.0 0.00 0.00 0.00 1008.5
20260506091604 70 0.0 0.0 0.00 0.00 0.00 1008.5
20260506090603 73 0.0 0.0 0.00 0.00 0.00 1008.6
20260506085603 72 0.0 0.0 0.00 0.00 0.00 1008.5
20260506084602 70 0.0 0.0 0.00 0.00 0.00 1008.5
20260506083602 71 0.0 0.0 0.00 0.00 0.00 1008.5
20260506082601 68 0.0 0.0 0.00 0.00 0.00 1008.4
20260506081601 62 0.0 0.0 0.00 0.00 0.00 1008.5
20260506080600 61 0.0 0.0 0.00 0.00 0.00 1008.7
20260506072558 56 0.0 0.0 0.00 0.00 0.00 1009.0
20260506071558 55 0.0 0.0 0.00 0.00 0.00 1009.0
20260506070557 53 0.0 0.0 0.00 0.00 0.00 1008.9
20260506061555 47 0.0 0.0 0.00 0.00 0.00 1008.9
20260506060555 46 0.0 0.0 0.00 0.00 0.00 1009.0
20260506050552 44 0.0 0.0 0.00 0.00 0.00 1009.4
20260506044551 44 0.0 0.0 0.00 0.00 0.00 1009.5
20260506043551 43 0.0 0.0 0.00 0.00 0.00 1009.5
20260506042550 44 0.0 0.0 0.00 0.00 0.00 1009.5
20260506041550 46 0.0 0.0 0.00 0.00 0.00 1009.6
20260506040549 43 0.0 0.0 0.00 0.00 0.00 1009.6
20260506035549 44 0.0 0.0 0.00 0.00 0.00 1009.7
20260506034548 44 0.0 0.0 0.00 0.00 0.00 1009.6
20260506033548 44 0.0 0.0 0.00 0.00 0.00 1009.6
20260506032547 44 0.0 0.0 0.00 0.00 0.00 1009.8
20260506031548 44 0.0 0.0 0.00 0.00 0.00 1010.0
20260506030547 45 0.0 0.0 0.00 0.00 0.00 1009.9
20260506025546 45 0.0 0.0 0.00 0.00 0.00 1010.0
20260506024546 45 0.0 0.0 0.00 0.00 0.00 1010.1
20260506023545 45 0.0 0.0 0.00 0.00 0.00 1010.3
20260506022545 45 0.0 0.0 0.00 0.00 0.00 1010.4
20260506021544 47 0.0 0.0 0.00 0.00 0.00 1010.4
20260506020544 45 0.0 0.0 0.00 0.00 0.00 1010.2
20260506011542 46 0.0 0.0 0.00 0.00 0.00 1010.9
20260506010541 46 0.0 0.0 0.00 0.00 0.00 1011.0
20260506005541 48 0.0 0.0 0.00 0.00 0.00 1010.8
20260506004541 46 0.0 0.0 0.00 0.00 0.00 1010.8
20260506003540 47 0.0 0.0 0.00 0.00 0.00 1010.7
20260506002540 48 0.0 0.0 0.00 0.00 0.00 1010.8
20260506001540 47 0.0 0.0 0.00 0.00 0.00 1010.9
20260506000539 47 0.0 0.0 0.00 0.00 0.00 1011.0
20260505235539 47 0.0 0.0 0.00 0.00 0.00 1011.1
20260505234539 49 0.0 0.0 0.00 0.00 0.00 1011.2
20260505233538 48 0.0 0.0 0.00 0.00 0.00 1011.3
20260505232538 47 0.0 0.0 0.00 0.00 0.00 1011.4
20260505231538 48 0.0 0.0 0.00 0.00 0.00 1011.5
20260505230538 47 0.0 0.0 0.00 0.00 0.00 1011.6
20260505225537 47 0.0 0.0 0.00 0.00 0.00 1011.6
20260505224537 48 0.0 0.0 0.00 0.00 0.00 1011.5
20260505223537 47 0.0 0.0 0.00 0.00 0.00 1011.5
20260505222536 47 0.0 0.0 0.00 0.00 0.00 1011.6
20260505221536 48 0.0 0.0 0.00 0.00 0.00 1011.6
20260505220536 49 0.0 0.0 0.00 0.00 0.00 1011.6
20260505215535 49 0.0 0.0 0.00 0.00 0.00 1011.6
20260505214535 49 0.0 0.0 0.00 0.00 0.00 1011.6
20260505213535 49 0.0 0.0 0.00 0.00 0.00 1011.8
20260505212534 49 0.0 0.0 0.00 0.00 0.00 1011.7
20260505211534 50 0.0 0.0 0.00 0.00 0.00 1011.9
20260505210534 50 0.0 0.0 0.00 0.00 0.00 1011.7
20260505205534 50 0.0 0.0 0.00 0.00 0.00 1011.7
20260505204533 50 0.0 0.0 0.00 0.00 0.00 1011.5
20260505203533 50 0.0 0.0 0.00 0.00 0.00 1011.3
20260505202533 51 0.0 0.0 0.00 0.00 0.00 1011.3
20260505201532 51 0.0 0.0 0.00 0.00 0.00 1011.3
20260505200532 51 0.0 0.0 0.00 0.00 0.00 1011.3
20260505195532 52 0.0 0.0 0.00 0.00 0.00 1011.1
20260505194531 52 0.0 0.0 0.00 0.00 0.00 1010.9
20260505193531 53 0.0 0.0 0.00 0.00 0.00 1010.7
20260505192531 52 0.0 0.0 0.00 0.00 0.00 1010.7
20260505191530 53 0.0 0.0 0.00 0.00 0.00 1010.8
20260505190530 54 0.0 0.0 0.00 0.00 0.00 1010.9
20260505185530 54 0.0 0.0 0.00 0.00 0.00 1010.9
20260505184529 54 0.0 0.0 0.00 0.00 0.00 1010.8
20260505183529 54 0.0 0.0 0.00 0.00 0.00 1010.6
20260505182529 55 0.0 0.0 0.00 0.00 0.00 1010.6
20260505181528 55 0.0 0.0 0.00 0.00 0.00 1010.5
20260505180528 56 0.0 0.0 0.00 0.00 0.00 1010.4
20260505175528 56 0.0 0.0 0.00 0.00 0.00 1010.5